[ ตารางข้อมูล ] [ Min-Max ] [ วันนี้4 ] [ วันนี้2 ] [ เทียบ3วัน A ] [ เทียบ4วัน B ]   

วันนี้2   [ ◀ ช่วงเก่ากว่า ] [ ช่วงที่ 196 ] [ ช่วงใหม่กว่า ▶ ] [ ล่าสุด ]    [ 3 ชั่วโมง ] [ 6 ชั่วโมง ] [ 12 ชั่วโมง ] [ 24 ชั่วโมง ]   วันนี้2

อุณภูมิตู้ Knockdown4529  ราย 3 ชั่วโมง  ที่วัดได้ ในช่วงวันเวลา 10/04/2026 (04:33) ถึง 10/04/2026 (07:33) 
ความชื้นในตู้ Knockdown4529  ราย 3 ชั่วโมง  ที่วัดได้ ในช่วงวันเวลา 10/04/2026 (04:33) ถึง 10/04/2026 (07:33) 

 
DS18B20SHTC3 
IDDate d/m/Y & Timedata1
สูง
data2
ต่ำ
data3
นอก
temp
pcb
hum
pcb
Time
 10482  10/04/2026 07:32:15  26.4  26.5  26.5  26.4  70.1  07:32 
 10481  10/04/2026 07:27:33  26.4  26.5  26.4  26.5  70.2  07:27 
 10480  10/04/2026 07:22:52  26.4  26.5  26.2  26.4  70.1  07:22 
 10479  10/04/2026 07:18:11  26.4  26.5  25.9  26.4  70.2  07:18 
 10478  10/04/2026 07:13:28  26.4  26.5  25.7  26.4  70.4  07:13 
 10477  10/04/2026 07:08:46  26.4  26.5  25.7  26.4  70.3  07:08 
 10476  10/04/2026 07:04:04  26.4  26.5  25.6  26.4  70.3  07:04 
 10475  10/04/2026 06:59:23  26.4  26.5  25.5  26.2  70.3  06:59 
 10474  10/04/2026 06:54:41  26.4  26.5  25.4  26.4  70.5  06:54 
 10473  10/04/2026 06:50:00  26.4  26.5  25.4  26.4  70.5  06:50 
 10472  10/04/2026 06:45:19  26.4  26.5  25.4  26.4  70.5  06:45 
 10471  10/04/2026 06:40:37  26.4  26.5  25.1  26.4  70.4  06:40 
 10470  10/04/2026 06:35:55  26.4  26.5  25.1  26.3  70.5  06:35 
 10469  10/04/2026 06:31:13  26.4  26.5  25.1  26.4  70.5  06:31 
 10468  10/04/2026 06:26:31  26.4  26.5  25.0  26.5  70.5  06:26 
 10467  10/04/2026 06:21:48  26.4  26.6  25.0  26.1  70.5  06:21 
 10466  10/04/2026 06:17:07  26.4  26.6  25.0  26.4  70.5  06:17 
 10465  10/04/2026 06:12:25  26.4  26.6  25.0  26.4  70.6  06:12 
 10464  10/04/2026 06:07:43  26.4  26.6  25.2  26.3  70.5  06:07 
 10463  10/04/2026 06:03:01  26.4  26.6  25.2  26.4  70.5  06:03 
 10462  10/04/2026 05:58:19  26.5  26.6  25.1  26.5  70.6  05:58 
 10461  10/04/2026 05:53:37  26.5  26.6  25.2  26.4  70.5  05:53 
 10460  10/04/2026 05:48:55  26.5  26.6  25.2  26.4  70.6  05:48 
 10459  10/04/2026 05:44:14  26.5  26.6  25.2  26.5  70.7  05:44 

Data every 5 minute.


ใช้เวลาประมวลผล 0.00279 วินาที